When you browse on this site, cookies collect data to enhance your experience and personalize the content and advertising you see.
Visit our Privacy Policy to learn more. By continuing to use the site, you agree to this use of cookies and data.
  • In Hungary
  • List of Countries
  • For 7 days
  • Water Temperature
  • Weather Map
  • News
  • Weather Widgets
  • user-avatar
    Login

    Hourly Weather Mokrousskoe

    Today, 18 January, Saturday

    Time Temperature Precipitation Wind Pressure Humidity
    00:00 -14°C° 0 mm 1 mps 743 mmHg 88%
    01:00 -16°C° 0 mm 2 mps 743 mmHg 90%
    02:00 -16°C° 0 mm 2 mps 743 mmHg 92%
    03:00 -16°C° 0 mm 2 mps 743 mmHg 93%
    04:00 -15°C° 0 mm 2 mps 743 mmHg 95%
    05:00 -15°C° 0 mm 2 mps 742 mmHg 91%
    06:00 -16°C° 0 mm 3 mps 742 mmHg 87%
    07:00 -16°C° 0 mm 3 mps 741 mmHg 83%
    08:00 -14°C° 0 mm 3 mps 741 mmHg 85%
    09:00 -12°C° 0 mm 4 mps 740 mmHg 87%
    10:00 -9°C° 0 mm 4 mps 740 mmHg 87%
    11:00 -8°C° 0 mm 5 mps 740 mmHg 86%
    12:00 -7°C° 0 mm 5 mps 739 mmHg 84%
    13:00 -5°C° 0 mm 5 mps 738 mmHg 82%
    14:00 -5°C° 0 mm 5 mps 738 mmHg 84%
    15:00 -5°C° 0 mm 5 mps 739 mmHg 85%
    16:00 -4°C° 0 mm 4 mps 738 mmHg 88%
    17:00 -5°C° 0 mm 4 mps 739 mmHg 89%
    18:00 -5°C° 0 mm 4 mps 739 mmHg 89%
    19:00 -5°C° 0 mm 4 mps 739 mmHg 89%
    20:00 -8°C° 0 mm 4 mps 740 mmHg 90%
    21:00 -8°C° 0 mm 3 mps 741 mmHg 91%
    22:00 -8°C° 0 mm 2 mps 742 mmHg 91%
    23:00 -10°C° 0 mm 2 mps 742 mmHg 91%

    Tomorrow, 19 January, Sunday

    Time Temperature Precipitation Wind Pressure Humidity
    00:00 -10°C° 0 mm 1 mps 742 mmHg 90%
    01:00 -12°C° 0 mm 1 mps 743 mmHg 90%
    02:00 -12°C° 0 mm 1 mps 743 mmHg 89%
    03:00 -13°C° 0 mm 1 mps 744 mmHg 89%
    04:00 -13°C° 0 mm 1 mps 744 mmHg 89%
    05:00 -14°C° 0 mm 1 mps 744 mmHg 87%
    06:00 -14°C° 0 mm 1 mps 745 mmHg 86%
    07:00 -15°C° 0 mm 1 mps 745 mmHg 84%
    08:00 -14°C° 0 mm 1 mps 745 mmHg 83%
    09:00 -14°C° 0 mm 1 mps 745 mmHg 82%
    10:00 -13°C° 0 mm 1 mps 745 mmHg 80%
    11:00 -12°C° 0 mm 1 mps 745 mmHg 79%
    12:00 -11°C° 0 mm 1 mps 745 mmHg 78%
    13:00 -10°C° 0 mm 1 mps 745 mmHg 77%
    14:00 -10°C° 0 mm 1 mps 745 mmHg 79%
    15:00 -10°C° 0 mm 1 mps 745 mmHg 81%
    16:00 -10°C° 0 mm 1 mps 745 mmHg 84%
    17:00 -10°C° 0 mm 1 mps 744 mmHg 87%
    18:00 -10°C° 0 mm 1 mps 744 mmHg 90%
    19:00 -12°C° 0 mm 2 mps 744 mmHg 93%
    20:00 -12°C° 0.2 mm 2 mps 744 mmHg 94%
    21:00 -10°C° 0.2 mm 2 mps 744 mmHg 94%
    22:00 -10°C° 0.2 mm 2 mps 743 mmHg 95%
    23:00 -10°C° 0.2 mm 2 mps 743 mmHg 95%

    Day after tomorrow, 20 January, Monday

    Time Temperature Precipitation Wind Pressure Humidity
    00:00 -10°C° 0.2 mm 2 mps 742 mmHg 95%
    01:00 -9°C° 0.2 mm 2 mps 741 mmHg 95%
    02:00 -9°C° 0.3 mm 2 mps 741 mmHg 95%
    03:00 -9°C° 0.3 mm 2 mps 741 mmHg 95%
    04:00 -9°C° 0.3 mm 2 mps 741 mmHg 95%
    05:00 -10°C° 0.3 mm 2 mps 740 mmHg 95%
    06:00 -10°C° 0.3 mm 2 mps 740 mmHg 95%
    07:00 -10°C° 0.3 mm 2 mps 739 mmHg 95%
    08:00 -12°C° 0.4 mm 3 mps 739 mmHg 95%
    09:00 -13°C° 0.4 mm 3 mps 739 mmHg 94%
    10:00 -13°C° 0.4 mm 3 mps 739 mmHg 94%
    11:00 -13°C° 0.2 mm 3 mps 739 mmHg 93%
    12:00 -13°C° 0.2 mm 3 mps 739 mmHg 93%
    13:00 -12°C° 0.2 mm 2 mps 739 mmHg 92%
    14:00 -13°C° 0 mm 2 mps 739 mmHg 93%
    15:00 -14°C° 0 mm 2 mps 739 mmHg 94%
    16:00 -15°C° 0 mm 2 mps 740 mmHg 95%
    17:00 -15°C° 0 mm 2 mps 740 mmHg 96%
    18:00 -16°C° 0 mm 2 mps 740 mmHg 97%
    19:00 -15°C° 0 mm 1 mps 740 mmHg 97%
    20:00 -16°C° 0 mm 1 mps 740 mmHg 97%
    21:00 -16°C° 0 mm 1 mps 740 mmHg 98%
    22:00 -17°C° 0 mm 1 mps 740 mmHg 98%
    23:00 -17°C° 0 mm 1 mps 740 mmHg 98%

    21 January, Tuesday

    Time Temperature Precipitation Wind Pressure Humidity
    00:00 -18°C° 0 mm 1 mps 740 mmHg 98%
    01:00 -18°C° 0 mm 0 mps 739 mmHg 99%
    02:00 -18°C° 0 mm 0 mps 739 mmHg 99%
    03:00 -19°C° 0 mm 0 mps 739 mmHg 99%
    04:00 -19°C° 0 mm 0 mps 739 mmHg 99%
    05:00 -19°C° 0 mm 1 mps 739 mmHg 99%
    06:00 -19°C° 0 mm 1 mps 739 mmHg 99%
    07:00 -19°C° 0 mm 1 mps 738 mmHg 99%
    08:00 -18°C° 0 mm 1 mps 738 mmHg 98%
    09:00 -19°C° 0 mm 2 mps 738 mmHg 97%
    10:00 -19°C° 0 mm 2 mps 738 mmHg 96%
    11:00 -17°C° 0 mm 2 mps 737 mmHg 95%
    12:00 -16°C° 0 mm 2 mps 737 mmHg 93%
    13:00 -15°C° 0 mm 3 mps 736 mmHg 92%
    14:00 -16°C° 0 mm 3 mps 736 mmHg 93%
    15:00 -17°C° 0 mm 3 mps 735 mmHg 93%
    16:00 -17°C° 0 mm 3 mps 735 mmHg 94%
    17:00 -17°C° 0 mm 3 mps 734 mmHg 94%
    18:00 -18°C° 0 mm 3 mps 734 mmHg 94%
    19:00 -19°C° 0 mm 4 mps 733 mmHg 94%
    20:00 -19°C° 0 mm 4 mps 732 mmHg 94%
    21:00 -18°C° 0 mm 4 mps 732 mmHg 94%
    22:00 -18°C° 0 mm 4 mps 731 mmHg 94%
    23:00 -18°C° 0 mm 4 mps 730 mmHg 94%

    22 January, Wednesday

    Time Temperature Precipitation Wind Pressure Humidity
    00:00 -17°C° 0 mm 4 mps 729 mmHg 94%
    01:00 -17°C° 0 mm 4 mps 728 mmHg 94%
    02:00 -17°C° 0 mm 5 mps 727 mmHg 93%
    03:00 -14°C° 0 mm 5 mps 726 mmHg 93%
    04:00 -13°C° 0 mm 5 mps 725 mmHg 92%
    05:00 -12°C° 0.1 mm 5 mps 724 mmHg 92%
    06:00 -11°C° 0.1 mm 5 mps 724 mmHg 92%
    07:00 -11°C° 0.1 mm 5 mps 723 mmHg 92%
    08:00 -10°C° 0.2 mm 5 mps 722 mmHg 92%
    09:00 -10°C° 0.2 mm 5 mps 722 mmHg 91%
    10:00 -10°C° 0.2 mm 5 mps 721 mmHg 90%
    11:00 -8°C° 0.1 mm 5 mps 720 mmHg 91%
    12:00 -8°C° 0.1 mm 4 mps 720 mmHg 91%
    13:00 -8°C° 0.1 mm 4 mps 719 mmHg 91%
    14:00 -8°C° 0.1 mm 4 mps 719 mmHg 91%
    15:00 -7°C° 0.1 mm 3 mps 718 mmHg 91%
    16:00 -7°C° 0.1 mm 3 mps 718 mmHg 91%
    17:00 -7°C° 0.2 mm 3 mps 718 mmHg 92%
    18:00 -7°C° 0.2 mm 3 mps 718 mmHg 94%
    19:00 -7°C° 0.2 mm 3 mps 717 mmHg 95%
    20:00 -7°C° 0.1 mm 3 mps 717 mmHg 95%
    21:00 -7°C° 0.1 mm 3 mps 716 mmHg 95%
    22:00 -7°C° 0.1 mm 3 mps 716 mmHg 95%
    23:00 -8°C° 0.1 mm 3 mps 715 mmHg 95%

    23 January, Thursday

    Time Temperature Precipitation Wind Pressure Humidity
    00:00 -8°C° 0.1 mm 3 mps 714 mmHg 95%
    01:00 -8°C° 0.1 mm 3 mps 713 mmHg 95%
    02:00 -7°C° 0.6 mm 3 mps 712 mmHg 95%
    03:00 -7°C° 0.6 mm 3 mps 712 mmHg 95%
    04:00 -6°C° 0.6 mm 3 mps 711 mmHg 95%
    05:00 -7°C° 0.2 mm 3 mps 711 mmHg 95%
    06:00 -6°C° 0.2 mm 2 mps 711 mmHg 95%
    07:00 -6°C° 0.2 mm 2 mps 710 mmHg 95%
    08:00 -7°C° 0.3 mm 3 mps 711 mmHg 95%
    09:00 -7°C° 0.3 mm 3 mps 712 mmHg 94%
    10:00 -8°C° 0.3 mm 4 mps 712 mmHg 94%
    11:00 -8°C° 0.3 mm 5 mps 713 mmHg 93%
    12:00 -10°C° 0.3 mm 6 mps 714 mmHg 92%
    13:00 -10°C° 0.3 mm 6 mps 716 mmHg 91%
    14:00 -11°C° 0.3 mm 7 mps 717 mmHg 91%
    15:00 -12°C° 0.3 mm 7 mps 718 mmHg 90%
    16:00 -12°C° 0.3 mm 7 mps 719 mmHg 89%
    17:00 -13°C° 0.1 mm 7 mps 720 mmHg 88%
    18:00 -12°C° 0.1 mm 6 mps 721 mmHg 87%
    19:00 -14°C° 0.1 mm 6 mps 723 mmHg 86%
    20:00 -15°C° 0 mm 6 mps 723 mmHg 86%
    21:00 -15°C° 0 mm 6 mps 724 mmHg 86%
    22:00 -15°C° 0 mm 5 mps 725 mmHg 86%
    23:00 -15°C° 0 mm 5 mps 725 mmHg 87%
    Show more